User: anonymous   Login
Location: Caltech
(34.1382°N, 118.1253°W)
Time: 13:04:21
(UTC-08:00)
Language:

UOSAT-12 - Orbit

View from above orbital plane
View from above orbital plane
View from above satellite
View from above satellite

Ground track
Ground track

The orbit data is extracted from the following two-line orbital elements,

1 25693U 99021A   17344.93172473 -.00000077 +00000-0 +92856-5 0  9991
2 25693 064.5562 300.9288 0046286 288.8937 070.7153 14.80773911006028
Epoch (UTC): 10 December 2017 22:21:41
Eccentricity: 0.0046286
inclination: 64.5562°
perigee height: 594 km
apogee height: 659 km
right ascension of ascending node: 300.9288°
argument of perigee: 288.8937°
revolutions per day: 14.80773911
mean anomaly at epoch: 70.7153°
orbit number at epoch: 602

The dashed part of the orbit path shows where the satellite is in the earth's shadow,  

DLR